Overview Statistics Trail Chart Weather Telemetry Raw packets
 

This is the latest recevied weather packets stored in our database for station/object N0HOT. If no packets are shown the sender has not sent any weather packets the latest 10 day(s).

<< 43 44 45 46 47 48 49 >>
Time Temp. Humidity Pressure Rain* Wind** Luminosity Snow
1788363045 21.67° C 89% 1013.2 hPa 0 mm - 237 W/m² -
1788362741 21.67° C 89% 1013.2 hPa 0 mm - 92 W/m² -
1788362436 21.11° C 89% 1013.2 hPa 0 mm - 168 W/m² -
1788362132 21.11° C 89% 1013.2 hPa 0 mm - 232 W/m² -
1788361852 21.11° C 89% 1012.8 hPa 0 mm - 283 W/m² -
1788361526 21.11° C 89% 1013.2 hPa 0 mm - 127 W/m² -
1788361222 21.11° C 89% 1013.2 hPa 0 mm - 135 W/m² -
1788360916 21.11° C 89% 1013.2 hPa 0 mm - 116 W/m² -
1788360611 21.11° C 89% 1013.2 hPa 0 mm - 134 W/m² -
1788360308 20.56° C 89% 1013.2 hPa 0 mm - 147 W/m² -
1788360002 20.56° C 89% 1013.2 hPa 0 mm - 127 W/m² -
1788359697 20.56° C 89% 1013.2 hPa 0 mm - 107 W/m² -
1788359393 20.56° C 89% 1013.2 hPa 0 mm - 92 W/m² -
1788359088 20.56° C 89% 1013.2 hPa 0 mm - 98 W/m² -
1788358783 20° C 89% 1013.2 hPa 0 mm - 106 W/m² -
1788358478 20° C 89% 1013.2 hPa 0 mm - 111 W/m² -
1788358178 20° C 89% 1013.2 hPa 0 mm - 98 W/m² -
1788357873 20° C 89% 1013.2 hPa 0 mm - 101 W/m² -
1788357573 20° C 89% 1012.8 hPa 0 mm - 109 W/m² -
1788357269 20° C 89% 1013.2 hPa 0 mm - 118 W/m² -
1788356967 20° C 89% 1013.2 hPa 0 mm - 87 W/m² -
1788356664 20° C 89% 1013.6 hPa 0 mm - 76 W/m² -
1788356358 20° C 89% 1013.9 hPa 0 mm - 69 W/m² -
1788356053 20° C 89% 1013.9 hPa 0 mm - 65 W/m² -
1788355748 19.44° C 89% 1013.6 hPa 0 mm - 74 W/m² -

* Rain latest hour (hover to see other rain measurements)
** Current wind speed in m/s (hover to see current wind gust speed)